Regional Weather Roundup
Issued by NWS

Home | Current Version | Previous Version | Text Only | Print | Product List | Glossary On
Versions: 1 2 3 4 5 6 7 8 9 10 11 12 13 14 15 16 17 18 19 20 21 22 23 24 25 26 27 28 29 30 31 32 33 34 35 36 37 38 39 40 41 42 43 44 45 46 47 48 49 50
000
ASUS44 KLIX 250301
RWRLA
LOUISIANA WEATHER ROUNDUP
NATIONAL WEATHER SERVICE NEW ORLEANS LA
900 PM CST WED DEC 24 2014

NOTE: "FAIR" INDICATES FEW OR NO CLOUDS BELOW 12,000 FEET WITH NO
      SIGNIFICANT WEATHER AND/OR OBSTRUCTIONS TO VISIBILITY.
      SKY/WX - SKY CONDITION AND SIGNIFICANT WEATHER.
      TMP - AIR TEMPERATURE.    DP   - DEWPOINT TEMPERATURE.
      RH  - RELATIVE HUMIDITY.  PRES - PRESSURE.
      HX  - HEAT INDEX.         WCI  - WIND CHILL INDEX.

*  THESE STATIONS ARE NOT NWS OR FAA STATIONS AND ARE NOT UNDER
   NWS QUALITY CONTROL.

LAZ040-048-061>063-065-066-069-250400-
SOUTHEAST LOUISIANA

CITY           SKY/WX    TMP DP  RH WIND       PRES   REMARKS
N.O. AUDUBON   NOT AVBL
N.O. INTL ARPT MOCLDY    49  33  54 NW14      30.11R
N.O. LAKEFRONT MOCLDY    51  35  54 NW18      30.11R
N.O. DOWNTOWN* CLOUDY    50  30  46 NW6       30.11R
SLIDELL        PTCLDY    45  34  65 CALM      30.09R
BATON ROUGE    CLEAR     43  35  73 W3        30.11R
BOOTHVILLE     MOCLDY    49  38  65 NW9       30.11R
BELLE CHASSE   MOCLDY    50  31  48 W6        30.11R
BOGALUSA*        N/A     42  38  84 CALM      30.10R
GALLIANO*      NOT AVBL
NEW ROADS*     NOT AVBL
GONZALES*      NOT AVBL
HAMMOND*       NOT AVBL
HOUMA*         NOT AVBL
PORT FOURCHON* CLOUDY    50  37  62 NW12      30.15R

$$

LAZ041-044-053-054-250400-
SOUTHWEST LOUISIANA

CITY           SKY/WX    TMP DP  RH WIND       PRES   REMARKS
LAKE CHARLES   CLEAR     38  36  92 SW3       30.13R
LAFAYETTE      CLEAR     43  36  76 W6        30.13R
PATTERSON      CLEAR     45  36  70 W6        30.15R
SALT POINT       N/A     59  37  44 VRB7      30.13R
NEW IBERIA     CLEAR     44  37  76 W3        30.14R
CHENAULT AIRPK CLEAR     39  37  91 CALM      30.13R

$$

LAZ027-028-250400-
CENTRAL LOUISIANA

CITY           SKY/WX    TMP DP  RH WIND       PRES   REMARKS
FORT POLK      CLEAR     37  35  96 SE2       30.10R
ALEXANDRIA INT CLEAR     38  34  85 CALM      30.10R
ALEXANDRIA     CLEAR     35  34  96 CALM      30.10R

$$

LAZ001-002-250400-
NORTHWEST LOUISIANA

CITY           SKY/WX    TMP DP  RH WIND       PRES   REMARKS
SHREVEPORT     CLEAR     36  33  89 CALM      30.07R
BARKSDALE AFB  CLEAR     34  31  87 SE2       30.08R
DTN SHREVEPORT CLEAR     36  30  79 CALM      30.08R

$$

LAZ014-016-250400-
NORTHEAST LOUISIANA

CITY           SKY/WX    TMP DP  RH WIND       PRES   REMARKS
MONROE         CLOUDY    44  35  70 W7        30.09R
TALLULAH       CLEAR     42  34  73 W5        30.08R

$$



USA.gov is the U.S. government's official web portal to all federal, state and local government web resources and services.